Time,TemperatureF,DewpointF,PressureIn,WindDirection,WindDirectionDegrees,WindSpeedMPH,WindSpeedGustMPH,Humidity,HourlyPrecipIn,Conditions,Clouds,dailyrainin,SoftwareType,DateUTC
2013-08-23 00:13:00,73.1,70.0,30.02,ENE,75,2.0,3.0,90,0.00,,,0.00,weatherlink.com 1.10,2013-08-23 05:13:00,
2013-08-23 00:28:00,72.5,70.0,30.02,East,94,2.0,3.0,91,0.00,,,0.00,weatherlink.com 1.10,2013-08-23 05:28:00,
2013-08-23 00:43:00,72.1,70.0,30.02,ENE,72,1.0,5.0,92,0.00,,,0.00,weatherlink.com 1.10,2013-08-23 05:43:00,
2013-08-23 00:58:00,71.7,69.0,30.02,East,84,1.0,2.0,92,0.00,,,0.00,weatherlink.com 1.10,2013-08-23 05:58:00,
2013-08-23 01:13:00,71.4,69.0,30.02,SE,124,0.0,2.0,92,0.00,,,0.00,weatherlink.com 1.10,2013-08-23 06:13:00,
2013-08-23 01:28:00,71.3,69.0,30.02,ESE,105,0.0,1.0,93,0.00,,,0.00,weatherlink.com 1.10,2013-08-23 06:28:00,
2013-08-23 01:43:00,71.4,69.0,30.01,ESE,120,0.0,1.0,93,0.00,,,0.00,weatherlink.com 1.10,2013-08-23 06:43:00,
2013-08-23 01:58:00,71.4,69.0,30.01,ENE,77,0.0,1.0,93,0.00,,,0.00,weatherlink.com 1.10,2013-08-23 06:58:00,
2013-08-23 02:13:00,71.5,69.0,30.01,ENE,72,1.0,2.0,92,0.00,,,0.00,weatherlink.com 1.10,2013-08-23 07:13:00,
2013-08-23 02:28:00,71.4,69.0,30.00,ENE,75,1.0,5.0,92,0.00,,,0.00,weatherlink.com 1.10,2013-08-23 07:28:00,
2013-08-23 02:43:00,71.2,69.0,30.02,East,81,6.0,12.0,94,0.00,,,0.00,weatherlink.com 1.10,2013-08-23 07:43:00,
2013-08-23 02:58:00,71.1,69.0,30.02,ENE,75,5.0,9.0,93,0.00,,,0.00,weatherlink.com 1.10,2013-08-23 07:58:00,
2013-08-23 03:13:00,70.9,69.0,30.04,East,101,9.0,14.0,92,0.00,,,0.00,weatherlink.com 1.10,2013-08-23 08:13:00,
2013-08-23 03:28:00,70.5,68.0,30.03,ENE,77,7.0,15.0,93,0.00,,,0.00,weatherlink.com 1.10,2013-08-23 08:28:00,
2013-08-23 03:43:00,70.2,69.0,30.02,SSW,210,3.0,9.0,94,0.00,,,0.00,weatherlink.com 1.10,2013-08-23 08:43:00,
2013-08-23 03:58:00,70.0,68.0,30.02,ESE,113,4.0,8.0,94,0.00,,,0.00,weatherlink.com 1.10,2013-08-23 08:58:00,
2013-08-23 04:13:00,69.7,68.0,30.02,East,93,5.0,7.0,95,0.00,,,0.00,weatherlink.com 1.10,2013-08-23 09:13:00,
2013-08-23 04:28:00,69.6,68.0,30.03,East,90,3.0,7.0,95,0.00,,,0.00,weatherlink.com 1.10,2013-08-23 09:28:00,
2013-08-23 04:43:00,69.5,68.0,30.03,East,89,5.0,5.0,95,0.00,,,0.00,weatherlink.com 1.10,2013-08-23 09:43:00,
2013-08-23 04:58:00,69.6,68.0,30.04,East,87,3.0,5.0,94,0.00,,,0.00,weatherlink.com 1.10,2013-08-23 09:58:00,
2013-08-23 05:13:00,69.7,68.0,30.04,East,79,3.0,6.0,94,0.00,,,0.00,weatherlink.com 1.10,2013-08-23 10:13:00,
2013-08-23 05:28:00,69.7,68.0,30.04,East,84,2.0,5.0,94,0.00,,,0.00,weatherlink.com 1.10,2013-08-23 10:28:00,
2013-08-23 05:43:00,69.6,68.0,30.04,SE,132,4.0,8.0,94,0.00,,,0.00,weatherlink.com 1.10,2013-08-23 10:43:00,
2013-08-23 05:58:00,69.4,68.0,30.04,East,100,3.0,6.0,94,0.00,,,0.00,weatherlink.com 1.10,2013-08-23 10:58:00,
2013-08-23 06:13:00,69.1,68.0,30.05,East,95,2.0,5.0,95,0.00,,,0.00,weatherlink.com 1.10,2013-08-23 11:13:00,
2013-08-23 06:28:00,68.8,67.0,30.05,SE,146,3.0,5.0,95,0.00,,,0.00,weatherlink.com 1.10,2013-08-23 11:28:00,
2013-08-23 06:44:00,69.0,68.0,30.05,ENE,77,3.0,3.0,95,0.00,,,0.00,weatherlink.com 1.10,2013-08-23 11:44:00,
2013-08-23 06:59:00,69.4,68.0,30.06,ENE,75,1.0,5.0,95,0.00,,,0.00,weatherlink.com 1.10,2013-08-23 11:59:00,
2013-08-23 07:14:00,70.3,69.0,30.06,SE,143,0.0,2.0,94,0.00,,,0.00,weatherlink.com 1.10,2013-08-23 12:14:00,
2013-08-23 07:29:00,70.7,69.0,30.06,East,98,1.0,3.0,93,0.00,,,0.00,weatherlink.com 1.10,2013-08-23 12:29:00,
2013-08-23 07:44:00,71.5,69.0,30.06,SE,146,0.0,3.0,92,0.00,,,0.00,weatherlink.com 1.10,2013-08-23 12:44:00,
2013-08-23 07:59:00,72.9,69.0,30.06,East,88,1.0,4.0,88,0.00,,,0.00,weatherlink.com 1.10,2013-08-23 12:59:00,
2013-08-23 08:14:00,73.9,70.0,30.06,East,101,0.0,2.0,87,0.00,,,0.00,weatherlink.com 1.10,2013-08-23 13:14:00,
2013-08-23 08:29:00,74.5,70.0,30.06,SSE,154,0.0,3.0,86,0.00,,,0.00,weatherlink.com 1.10,2013-08-23 13:29:00,
2013-08-23 08:44:00,76.0,71.0,30.06,East,89,2.0,4.0,83,0.00,,,0.00,weatherlink.com 1.10,2013-08-23 13:44:00,
2013-08-23 08:59:00,76.6,70.0,30.06,East,88,1.0,3.0,81,0.00,,,0.00,weatherlink.com 1.10,2013-08-23 13:59:00,
2013-08-23 09:14:00,77.6,71.0,30.06,East,84,1.0,3.0,81,0.00,,,0.00,weatherlink.com 1.10,2013-08-23 14:14:00,
2013-08-23 09:29:00,78.5,72.0,30.06,ENE,70,0.0,4.0,79,0.00,,,0.00,weatherlink.com 1.10,2013-08-23 14:29:00,
2013-08-23 09:44:00,78.5,72.0,30.06,East,87,2.0,5.0,80,0.00,,,0.00,weatherlink.com 1.10,2013-08-23 14:44:00,
2013-08-23 09:59:00,79.6,73.0,30.07,ESE,115,3.0,4.0,79,0.00,,,0.00,weatherlink.com 1.10,2013-08-23 14:59:00,
2013-08-23 10:14:00,79.7,73.0,30.07,East,96,0.0,3.0,80,0.00,,,0.00,weatherlink.com 1.10,2013-08-23 15:14:00,
2013-08-23 10:29:00,81.9,74.0,30.07,SE,143,0.0,3.0,76,0.00,,,0.00,weatherlink.com 1.10,2013-08-23 15:29:00,
2013-08-23 10:44:00,81.9,74.0,30.07,ENE,70,3.0,4.0,76,0.00,,,0.00,weatherlink.com 1.10,2013-08-23 15:44:00,
2013-08-23 10:59:00,81.7,75.0,30.07,East,101,0.0,7.0,79,0.00,,,0.00,weatherlink.com 1.10,2013-08-23 15:59:00,
2013-08-23 11:14:00,82.2,75.0,30.07,ESE,110,2.0,5.0,78,0.00,,,0.00,weatherlink.com 1.10,2013-08-23 16:14:00,
2013-08-23 11:29:00,82.6,74.0,30.07,ENE,71,7.0,8.0,76,0.00,,,0.00,weatherlink.com 1.10,2013-08-23 16:29:00,
2013-08-23 11:44:00,82.2,74.0,30.06,WSW,249,0.0,8.0,77,0.00,,,0.00,weatherlink.com 1.10,2013-08-23 16:44:00,
2013-08-23 11:59:00,82.3,74.0,30.06,SSE,165,2.0,7.0,76,0.00,,,0.00,weatherlink.com 1.10,2013-08-23 16:59:00,
2013-08-23 12:14:00,83.6,75.0,30.06,ESE,116,2.0,5.0,75,0.00,,,0.00,weatherlink.com 1.10,2013-08-23 17:14:00,
2013-08-23 12:29:00,84.3,75.0,30.06,ESE,110,1.0,5.0,74,0.00,,,0.00,weatherlink.com 1.10,2013-08-23 17:29:00,
2013-08-23 12:44:00,85.0,75.0,30.06,SE,136,1.0,6.0,73,0.00,,,0.00,weatherlink.com 1.10,2013-08-23 17:44:00,
2013-08-23 12:59:00,82.5,75.0,30.05,East,79,0.0,6.0,77,0.00,,,0.00,weatherlink.com 1.10,2013-08-23 17:59:00,
2013-08-23 13:14:00,85.9,76.0,30.05,East,92,4.0,4.0,71,0.00,,,0.00,weatherlink.com 1.10,2013-08-23 18:14:00,
2013-08-23 13:29:00,87.1,75.0,30.05,East,96,4.0,8.0,68,0.00,,,0.00,weatherlink.com 1.10,2013-08-23 18:29:00,
2013-08-23 13:44:00,87.5,74.0,30.05,ENE,78,5.0,8.0,65,0.00,,,0.00,weatherlink.com 1.10,2013-08-23 18:44:00,
2013-08-23 14:00:00,88.5,76.0,30.05,East,90,4.0,6.0,66,0.00,,,0.00,weatherlink.com 1.10,2013-08-23 19:00:00,
2013-08-23 14:15:00,87.8,74.0,30.04,SSE,156,1.0,4.0,64,0.00,,,0.00,weatherlink.com 1.10,2013-08-23 19:15:00,
2013-08-23 14:30:00,89.2,75.0,30.04,West,259,1.0,5.0,63,0.00,,,0.00,weatherlink.com 1.10,2013-08-23 19:30:00,
2013-08-23 14:45:00,88.0,73.0,30.04,ENE,60,6.0,8.0,62,0.00,,,0.00,weatherlink.com 1.10,2013-08-23 19:45:00,
2013-08-23 15:00:00,86.3,75.0,30.03,South,184,0.0,10.0,68,0.00,,,0.00,weatherlink.com 1.10,2013-08-23 20:00:00,
2013-08-23 15:15:00,87.2,74.0,30.03,East,81,6.0,9.0,65,0.00,,,0.00,weatherlink.com 1.10,2013-08-23 20:15:00,
2013-08-23 15:30:00,87.2,74.0,30.02,ENE,71,8.0,10.0,64,0.00,,,0.00,weatherlink.com 1.10,2013-08-23 20:30:00,
2013-08-23 15:45:00,87.4,73.0,30.02,SE,138,4.0,8.0,62,0.00,,,0.00,weatherlink.com 1.10,2013-08-23 20:45:00,
2013-08-23 16:00:00,87.8,73.0,30.01,East,81,3.0,8.0,62,0.00,,,0.00,weatherlink.com 1.10,2013-08-23 21:00:00,
2013-08-23 16:15:00,86.5,72.0,30.01,ESE,107,5.0,9.0,63,0.00,,,0.00,weatherlink.com 1.10,2013-08-23 21:15:00,
2013-08-23 16:30:00,88.4,72.0,30.01,SE,135,1.0,6.0,59,0.00,,,0.00,weatherlink.com 1.10,2013-08-23 21:30:00,
2013-08-23 16:45:00,87.5,72.0,30.01,SSE,163,1.0,8.0,60,0.00,,,0.00,weatherlink.com 1.10,2013-08-23 21:45:00,
2013-08-23 17:00:00,88.2,72.0,30.01,SE,125,3.0,6.0,59,0.00,,,0.00,weatherlink.com 1.10,2013-08-23 22:00:00,
2013-08-23 17:15:00,88.3,72.0,30.00,SW,231,1.0,5.0,59,0.00,,,0.00,weatherlink.com 1.10,2013-08-23 22:15:00,
2013-08-23 17:30:00,88.2,73.0,30.01,ENE,76,2.0,5.0,60,0.00,,,0.00,weatherlink.com 1.10,2013-08-23 22:30:00,
2013-08-23 17:45:00,86.3,72.0,30.01,ESE,110,6.0,6.0,62,0.00,,,0.00,weatherlink.com 1.10,2013-08-23 22:45:00,
2013-08-23 18:00:00,86.5,73.0,30.01,South,179,2.0,5.0,64,0.00,,,0.00,weatherlink.com 1.10,2013-08-23 23:00:00,
2013-08-23 18:15:00,85.8,72.0,30.01,SE,124,2.0,3.0,64,0.00,,,0.00,weatherlink.com 1.10,2013-08-23 23:15:00,
2013-08-23 18:30:00,86.0,73.0,30.01,East,85,1.0,3.0,66,0.00,,,0.00,weatherlink.com 1.10,2013-08-23 23:30:00,
2013-08-23 18:45:00,84.8,73.0,30.01,East,86,1.0,4.0,68,0.00,,,0.00,weatherlink.com 1.10,2013-08-23 23:45:00,
2013-08-23 19:00:00,83.6,72.0,30.02,East,101,1.0,3.0,68,0.00,,,0.00,weatherlink.com 1.10,2013-08-24 00:00:00,
2013-08-23 19:15:00,82.9,72.0,30.02,East,96,3.0,3.0,70,0.00,,,0.00,weatherlink.com 1.10,2013-08-24 00:15:00,
2013-08-23 19:30:00,80.7,71.0,30.02,ENE,68,2.0,4.0,72,0.00,,,0.00,weatherlink.com 1.10,2013-08-24 00:30:00,
2013-08-23 19:45:00,79.1,71.0,30.03,SE,139,0.0,4.0,75,0.00,,,0.00,weatherlink.com 1.10,2013-08-24 00:45:00,
2013-08-23 20:00:00,77.9,70.0,30.03,East,84,1.0,2.0,77,0.00,,,0.00,weatherlink.com 1.10,2013-08-24 01:00:00,
2013-08-23 20:15:00,77.1,70.0,30.04,East,81,3.0,3.0,79,0.00,,,0.00,weatherlink.com 1.10,2013-08-24 01:15:00,
2013-08-23 20:30:00,77.0,70.0,30.04,East,92,1.0,4.0,78,0.00,,,0.00,weatherlink.com 1.10,2013-08-24 01:30:00,
2013-08-23 20:45:00,76.1,70.0,30.04,East,81,1.0,3.0,80,0.00,,,0.00,weatherlink.com 1.10,2013-08-24 01:45:00,
2013-08-23 21:00:00,75.4,70.0,30.05,East,96,2.0,3.0,82,0.00,,,0.00,weatherlink.com 1.10,2013-08-24 02:00:00,
2013-08-23 21:15:00,75.0,70.0,30.05,East,81,1.0,4.0,83,0.00,,,0.00,weatherlink.com 1.10,2013-08-24 02:15:00,
2013-08-23 21:30:00,74.7,69.0,30.05,East,88,1.0,3.0,83,0.00,,,0.00,weatherlink.com 1.10,2013-08-24 02:30:00,
2013-08-23 21:45:00,74.4,69.0,30.05,ESE,103,1.0,4.0,83,0.00,,,0.00,weatherlink.com 1.10,2013-08-24 02:45:00,
2013-08-23 22:00:00,74.1,69.0,30.06,East,95,1.0,4.0,84,0.00,,,0.00,weatherlink.com 1.10,2013-08-24 03:00:00,
2013-08-23 22:15:00,74.1,69.0,30.06,ENE,77,4.0,6.0,83,0.00,,,0.00,weatherlink.com 1.10,2013-08-24 03:15:00,
2013-08-23 22:30:00,73.5,69.0,30.06,East,98,3.0,4.0,85,0.00,,,0.00,weatherlink.com 1.10,2013-08-24 03:30:00,
2013-08-23 22:45:00,73.0,68.0,30.06,East,81,2.0,5.0,85,0.00,,,0.00,weatherlink.com 1.10,2013-08-24 03:45:00,
2013-08-23 23:00:00,72.8,68.0,30.06,East,88,0.0,4.0,86,0.00,,,0.00,weatherlink.com 1.10,2013-08-24 04:00:00,
2013-08-23 23:15:00,72.2,68.0,30.06,East,85,3.0,4.0,87,0.00,,,0.00,weatherlink.com 1.10,2013-08-24 04:15:00,
2013-08-23 23:30:00,72.0,68.0,30.06,ENE,72,1.0,3.0,87,0.00,,,0.00,weatherlink.com 1.10,2013-08-24 04:30:00,
2013-08-23 23:45:00,71.8,68.0,30.06,East,81,0.0,3.0,87,0.00,,,0.00,weatherlink.com 1.10,2013-08-24 04:45:00,